Weather History for Kimball, NE

Change the Weather History Date:

Friday, July 5, 2013

  Actual Average (KSNY) Record (KSNY)
Temperature  
Mean Temperature 74 °F 74 °F  
Max Temperature 91 °F 90 °F 101 °F (1964)
Min Temperature 58 °F 59 °F 45 °F (1974)
Degree Days  
Heating Degree Days 0 0  
Month to date heating degree days 0  
Since 1 June heating degree days 59  
Since 1 July heating degree days 0  
Cooling Degree Days 10 9  
Month to date cooling degree days 44  
Year to date cooling degree days 203  
Since 1 June cooling degree days 181  
Growing Degree Days 24 (Base 50)    
Moisture  
Dew Point 49 °F    
Average Humidity 46    
Maximum Humidity 76    
Minimum Humidity 18    
Precipitation  
Precipitation 0.00 in 0.09 in 0.96 in (2009)
Month to date precipitation 0.46  
Year to date precipitation 10.40  
Sea Level Pressure  
Sea Level Pressure 29.90 in    
Wind  
Wind Speed 6 mph (NNE)    
Max Wind Speed 28 mph    
Max Gust Speed 33 mph    
Visibility 10 miles    
Events Thunderstorm    
T = Trace of Precipitation, MM = Missing Value Source: NWS Daily Summary

Daily Weather History Graph

Daily Weather History Graph

Search for Another Location

Airport:

Trip Planner

Search our weather history database for the weather conditions in past years. The results will help you decide how hot, cold, wet, or windy it might be!

Date:

Astronomy

Jul. 05, 2013 Rise Set
Actual Time 6:28 AM CDT 9:30 PM CDT
Civil Twilight 5:54 AM CDT 10:03 PM CDT
Nautical Twilight 5:12 AM CDT 10:46 PM CDT
Astronomical Twilight 4:22 AM CDT 11:36 PM CDT
Moon 4:29 AM CDT (7/5) 7:26 PM CDT (7/5)
Length of Visible Light 16h 09m
Length of Day
15h 02m
Waning Crescent, 6% of the Moon is Illuminated
Jul 5
Waning Crescent
Jul 8
New
Jul 15
First Quarter
Jul 22
Full
Jul 29
Last Quarter

Hourly Weather History & Observations

Time (CDT) Temp. Dew Point Humidity Pressure Visibility Wind Dir Wind Speed Gust Speed Precip Events Conditions
12:15 AM 69.4 °F 50.0 °F 50% 29.98 in 10.0 mi East 4.6 mph - N/A   Clear
12:35 AM 69.4 °F 50.9 °F 52% 29.97 in 10.0 mi ENE 4.6 mph - N/A   Clear
12:55 AM 68.9 °F 51.3 °F 53% 29.96 in 10.0 mi East 5.8 mph - N/A   Scattered Clouds
1:15 AM 68.9 °F 51.6 °F 54% 29.96 in 10.0 mi East 5.8 mph - N/A   Scattered Clouds
1:35 AM 68.5 °F 52.0 °F 55% 29.95 in 10.0 mi East 4.6 mph - N/A   Scattered Clouds
1:55 AM 66.2 °F 51.4 °F 59% 29.94 in 10.0 mi East 8.1 mph - N/A   Clear
2:15 AM 64.4 °F 51.4 °F 63% 29.94 in 10.0 mi ESE 5.8 mph - N/A   Clear
2:35 AM 63.9 °F 51.8 °F 65% 29.93 in 10.0 mi East 4.6 mph - N/A   Clear
2:55 AM 61.9 °F 51.3 °F 68% 29.93 in 10.0 mi ENE 4.6 mph - N/A   Clear
3:15 AM 61.3 °F 51.3 °F 69% 29.93 in 10.0 mi ENE 4.6 mph - N/A   Clear
3:35 AM 60.1 °F 50.9 °F 72% 29.92 in 10.0 mi East 5.8 mph - N/A   Clear
3:55 AM 59.7 °F 50.7 °F 72% 29.91 in 10.0 mi Calm Calm - N/A   Clear
4:15 AM 60.3 °F 50.4 °F 70% 29.92 in 10.0 mi Calm Calm - N/A   Clear
4:35 AM 58.8 °F 50.0 °F 73% 29.92 in 10.0 mi Calm Calm - N/A   Clear
4:55 AM 59.4 °F 51.6 °F 76% 29.93 in 10.0 mi NNW 16.1 mph 19.6 mph N/A   Clear
5:15 AM 61.3 °F 50.7 °F 68% 29.92 in 10.0 mi NNW 5.8 mph - N/A   Clear
5:35 AM 62.1 °F 50.0 °F 65% 29.92 in 10.0 mi NNW 8.1 mph - N/A   Clear
5:55 AM 62.8 °F 50.5 °F 64% 29.92 in 10.0 mi NNW 8.1 mph - N/A   Clear
6:15 AM 62.1 °F 50.9 °F 67% 29.91 in 10.0 mi North 5.8 mph - N/A   Clear
6:35 AM 63.5 °F 51.1 °F 64% 29.91 in 10.0 mi North 8.1 mph - N/A   Clear
6:55 AM 63.9 °F 51.1 °F 63% 29.92 in 10.0 mi North 5.8 mph - N/A   Clear
7:15 AM 64.6 °F 51.3 °F 62% 29.92 in 10.0 mi North 4.6 mph - N/A   Clear
7:35 AM 65.3 °F 51.4 °F 61% 29.91 in 10.0 mi North 6.9 mph - N/A   Clear
7:55 AM 66.2 °F 51.8 °F 60% 29.92 in 10.0 mi North 5.8 mph - N/A   Clear
8:15 AM 67.1 °F 51.8 °F 58% 29.92 in 10.0 mi North 6.9 mph - N/A   Clear
8:35 AM 67.6 °F 52.0 °F 57% 29.93 in 10.0 mi NNW 5.8 mph - N/A   Scattered Clouds
8:55 AM 68.4 °F 51.8 °F 55% 29.93 in 10.0 mi NE 3.5 mph - N/A   Scattered Clouds
9:15 AM 70.0 °F 50.9 °F 51% 29.94 in 10.0 mi North 5.8 mph - N/A   Scattered Clouds
9:35 AM 71.8 °F 51.1 °F 48% 29.93 in 10.0 mi North 5.8 mph - N/A   Scattered Clouds
9:55 AM 72.5 °F 50.7 °F 46% 29.94 in 10.0 mi NNW 4.6 mph - N/A   Scattered Clouds
10:15 AM 72.9 °F 50.2 °F 45% 29.93 in 10.0 mi North 6.9 mph - N/A   Clear
10:35 AM 72.0 °F 51.3 °F 48% 29.92 in 10.0 mi NNE 6.9 mph - N/A   Mostly Cloudy
10:55 AM 71.6 °F 52.0 °F 50% 29.90 in 10.0 mi ENE 8.1 mph - N/A   Scattered Clouds
11:15 AM 74.7 °F 50.4 °F 42% 29.90 in 10.0 mi ENE 5.8 mph - N/A   Scattered Clouds
11:35 AM 76.6 °F 48.4 °F 37% 29.90 in 10.0 mi NE 5.8 mph - N/A   Mostly Cloudy
11:55 AM 77.5 °F 46.4 °F 33% 29.91 in 10.0 mi ENE 5.8 mph - N/A   Overcast
12:15 PM 78.4 °F 48.7 °F 35% 29.90 in 10.0 mi NE 4.6 mph - N/A   Overcast
12:35 PM 81.0 °F 46.2 °F 29% 29.90 in 10.0 mi East 5.8 mph - N/A   Mostly Cloudy
12:55 PM 83.7 °F 45.0 °F 26% 29.90 in 10.0 mi East 6.9 mph - N/A   Scattered Clouds
1:15 PM 84.4 °F 44.6 °F 25% 29.91 in 10.0 mi ESE 5.8 mph - N/A   Clear
1:35 PM 83.8 °F 45.0 °F 26% 29.91 in 10.0 mi SE 5.8 mph - N/A   Clear
1:55 PM 85.3 °F 44.1 °F 24% 29.89 in 10.0 mi East 4.6 mph - N/A   Clear
2:15 PM 85.8 °F 43.9 °F 23% 29.89 in 10.0 mi East 5.8 mph - N/A   Clear
2:35 PM 87.1 °F 43.2 °F 21% 29.89 in 10.0 mi South 3.5 mph - N/A   Clear
2:55 PM 87.6 °F 42.8 °F 21% 29.88 in 10.0 mi Calm Calm - N/A   Clear
3:15 PM 89.2 °F 43.2 °F 20% 29.87 in 10.0 mi SSE 6.9 mph - N/A   Clear
3:35 PM 90.0 °F 42.6 °F 19% 29.86 in 10.0 mi SSE 4.6 mph - N/A   Clear
3:55 PM 90.1 °F 42.8 °F 19% 29.86 in 10.0 mi ESE 5.8 mph - N/A   Clear
4:15 PM 91.4 °F 42.4 °F 18% 29.85 in 10.0 mi NNE 6.9 mph - N/A   Clear
4:35 PM 88.5 °F 42.8 °F 20% 29.85 in 10.0 mi Calm Calm - N/A   Clear
4:55 PM 88.7 °F 42.8 °F 20% 29.85 in 10.0 mi NNW 4.6 mph - N/A   Clear
5:15 PM 90.0 °F 43.0 °F 19% 29.85 in 10.0 mi South 4.6 mph - N/A   Clear
5:35 PM 89.8 °F 43.2 °F 20% 29.85 in 10.0 mi South 3.5 mph - N/A   Clear
5:55 PM 89.8 °F 42.8 °F 19% 29.85 in 10.0 mi South 8.1 mph - N/A   Clear
6:15 PM 88.3 °F 43.0 °F 20% 29.85 in 10.0 mi Calm Calm - N/A   Clear
6:35 PM 88.2 °F 42.6 °F 20% 29.86 in 10.0 mi SW 8.1 mph - N/A   Clear
6:55 PM 83.1 °F 49.1 °F 31% 29.87 in 10.0 mi West 27.6 mph 33.4 mph N/A   Clear
7:15 PM 79.9 °F 50.7 °F 36% 29.88 in 10.0 mi West 21.9 mph 29.9 mph N/A Thunderstorm Clear
7:35 PM 78.8 °F 49.3 °F 35% 29.88 in 10.0 mi West 17.3 mph 26.5 mph N/A   Clear
7:55 PM 77.5 °F 51.8 °F 41% 29.88 in 10.0 mi NW 18.4 mph - N/A   Clear
8:15 PM 76.3 °F 53.4 °F 45% 29.88 in 10.0 mi NNW 18.4 mph 23.0 mph N/A   Clear
8:35 PM 74.3 °F 54.1 °F 49% 29.88 in 10.0 mi NNW 13.8 mph 18.4 mph N/A   Clear
8:55 PM 73.8 °F 54.1 °F 50% 29.88 in 10.0 mi North 8.1 mph - N/A   Clear
9:15 PM 72.9 °F 53.6 °F 51% 29.88 in 10.0 mi North 5.8 mph - N/A   Scattered Clouds
9:35 PM 72.0 °F 53.6 °F 52% 29.88 in 10.0 mi Calm Calm - N/A   Clear
9:55 PM 72.1 °F 53.2 °F 51% 29.88 in 10.0 mi Calm Calm - N/A   Clear
10:15 PM 71.6 °F 52.9 °F 52% 29.88 in 10.0 mi West 6.9 mph - N/A   Clear
10:35 PM 71.6 °F 53.2 °F 52% 29.88 in 10.0 mi West 4.6 mph - N/A   Clear
10:55 PM 70.5 °F 53.1 °F 54% 29.88 in 10.0 mi West 4.6 mph - N/A   Clear
11:15 PM 67.6 °F 53.1 °F 59% 29.88 in 10.0 mi WNW 6.9 mph - N/A   Clear
11:35 PM 66.4 °F 52.7 °F 61% 29.88 in 10.0 mi NW 3.5 mph - N/A   Clear
11:55 PM 66.4 °F 52.7 °F 61% 29.88 in 10.0 mi WNW 8.1 mph - N/A   Clear